Terug naar catalogus

SL-16 DEB

ActiefLEO
NORAD 39864·DEBRIS·🇷🇺 Russia

Gelanceerd Dec 25, 1992 vanaf Baikonur Cosmodrome

Loading…

Volgende Passages (komende 24 uur)

TLE

VerouderdSource: Space-Track

Epoch: Aug 28, 2026, 22:28 UTC

1 39864U 92093LS  26240.93649818  .00000492  00000-0  24997-3 0  9994
2 39864  71.1528 345.8890 0108337 116.8384 244.3867 14.17596751629430

Volg SL-16 DEB in realtime met AllMySat

Download on the App Store